Location: Peterborough
(44.3091°N, 78.3197°W)
Time: 17:20:33
(UTC-04:00)

Explorer 7 - Pass Details

Date: 27 March 2023
Orbit: 477 x 653 km, 50.3° (Epoch: 04 June)

Event Time Altitude Azimuth Distance (km) Brightness Sun altitude
Rises 19:46:47 0° 280° (W) 2,858 13.7 -3.1°
Reaches altitude 10° 19:49:18 10° 289° (WNW) 1,923 11.4 -3.5°
Maximum altitude 19:53:21 36° 357° (N) 911 8.1 -4.2°
Drops below altitude 10° 19:57:12 10° 65° (ENE) 1,814 9.0 -4.9°
Enters shadow 19:58:38 - 72° (ENE) 2,339 9.5 -5.2°
Sets 19:59:30 0° 74° (ENE) 2,673 - -5.3°
